User: anonymous   Login
Location: Bacea
(45.9500°N, 22.6667°E)
Time: 12:50:11
(UTC+00:00)
Language:

Cosmos 1953 - Orbit

View from above orbital plane
View from above orbital plane
View from above satellite
View from above satellite

Ground track
Ground track

The orbit data is extracted from the following two-line orbital elements,

1 19210U 88050A   22272.88226588  .00003439  00000-0  22301-3 0  9996
2 19210  82.5175 319.1758 0012044 146.4614 213.7379 15.07747575847294
Epoch (UTC): 29 September 2022 21:10:27
Eccentricity: 0.0012044
inclination: 82.5175°
perigee height: 535 km
apogee height: 551 km
right ascension of ascending node: 319.1758°
argument of perigee: 146.4614°
revolutions per day: 15.07747575
mean anomaly at epoch: 213.7379°
orbit number at epoch: 84729

The dashed part of the orbit path shows where the satellite is in the earth's shadow,  

DLR